QPF
0.09 0.09 0.06 0.04 0.04 0.04 0.04 0.06 0.07 0.08 0.07 0.07 0.05 0.04 0.05 0.05 0.04 0.05 0.06 0.05 0.03 0.02 0.02 0.02 0.03 0.03 0.03 0.03 0.02 0.02 0.03 0.04 0.06 0.08 0.08 0.07 0.07 0.06
0.08 0.08 0.07 0.04 0.04 0.04 0.05 0.06 0.07 0.07 0.09 0.08 0.06 0.05 0.06 0.03 0.04 0.04 0.04 0.03 0.02 0.02 0.02 0.03 0.02 0.02 0.02 0.02 0.03 0.03 0.03 0.03 0.04 0.05 0.06 0.06 0.06 0.05
0.08 0.06 0.06 0.05 0.06 0.06 0.06 0.06 0.07 0.08 0.08 0.08 0.08 0.07 0.08 0.07 0.07 0.05 0.04 0.05 0.03 0.02 0.02 0.02 0.02 0.02 0.02 0.03 0.04 0.04 0.03 0.03 0.03 0.04 0.04 0.04 0.05 0.04
0.08 0.08 0.07 0.07 0.08 0.07 0.07 0.07 0.06 0.07 0.08 0.07 0.07 0.09 0.08 0.08 0.09 0.09 0.06 0.05 0.05 0.04 0.03 0.03 0.02 0.03 0.03 0.05 0.06 0.05 0.05 0.04 0.04 0.04 0.04 0.04 0.03 0.03
0.08 0.08 0.08 0.08 0.08 0.08 0.07 0.06 0.06 0.06 0.07 0.06 0.06 0.08 0.08 0.08 0.10 0.11 0.10 0.09 0.06 0.07 0.06 0.04 0.03 0.03 0.04 0.04 0.05 0.06 0.06 0.06 0.05 0.04 0.03 0.04 0.03 0.02
0.07 0.06 0.06 0.06 0.06 0.06 0.05 0.05 0.06 0.07 0.07 0.06 0.06 0.06 0.07 0.08 0.10 0.11 0.12 0.12 0.10 0.07 0.08 0.07 0.05 0.05 0.05 0.05 0.05 0.05 0.05 0.05 0.06 0.05 0.04 0.03 0.03 0.03
0.07 0.05 0.04 0.05 0.05 0.04 0.03 0.04 0.05 0.06 0.06 0.07 0.07 0.07 0.07 0.08 0.08 0.09 0.10 0.12 0.14 0.12 0.12 0.11 0.09 0.09 0.09 0.08 0.07 0.05 0.04 0.03 0.04 0.04 0.03 0.03 0.03 0.03
0.07 0.06 0.04 0.04 0.02 0.02 0.02 0.03 0.03 0.04 0.05 0.07 0.07 0.06 0.07 0.07 0.07 0.07 0.08 0.10 0.12 0.13 0.13 0.12 0.11 0.12 0.11 0.09 0.09 0.08 0.06 0.04 0.04 0.03 0.03 0.02 0.02 0.02
0.08 0.07 0.05 0.03 0.02 0.03 0.03 0.03 0.03 0.03 0.04 0.04 0.06 0.05 0.05 0.06 0.08 0.08 0.09 0.11 0.12 0.13 0.13 0.11 0.10 0.11 0.09 0.08 0.10 0.09 0.08 0.06 0.05 0.04 0.03 0.02 0.01 0.02
0.08 0.07 0.07 0.05 0.03 0.03 0.03 0.04 0.05 0.05 0.04 0.04 0.05 0.05 0.04 0.05 0.06 0.06 0.07 0.09 0.10 0.11 0.12 0.11 0.09 0.09 0.07 0.07 0.08 0.08 0.08 0.07 0.06 0.04 0.03 0.02 0.02 0.01
0.04 0.04 0.05 0.04 0.03 0.03 0.03 0.04 0.05 0.05 0.03 0.02 0.02 0.02 0.02 0.02 0.03 0.04 0.06 0.07 0.07 0.08 0.09 0.10 0.10 0.09 0.08 0.07 0.06 0.07 0.07 0.06 0.05 0.04 0.03 0.03 0.03 0.03
0.04 0.04 0.03 0.02 0.03 0.03 0.04 0.05 0.05 0.05 0.04 0.03 0.02 0.02 0.02 0.03 0.03 0.05 0.06 0.07 0.07 0.06 0.06 0.08 0.08 0.09 0.08 0.06 0.06 0.06 0.07 0.06 0.05 0.04 0.03 0.03 0.03 0.03
0.03 0.03 0.02 0.02 0.03 0.03 0.03 0.03 0.03 0.03 0.04 0.05 0.05 0.04 0.04 0.05 0.06 0.06 0.07 0.07 0.06 0.06 0.06 0.06 0.05 0.06 0.07 0.06 0.06 0.06 0.07 0.08 0.06 0.04 0.03 0.03 0.03 0.03
0.04 0.03 0.03 0.03 0.03 0.03 0.03 0.01 0.01 0.01 0.03 0.05 0.06 0.05 0.05 0.04 0.04 0.04 0.04 0.05 0.05 0.05 0.06 0.06 0.05 0.06 0.06 0.05 0.05 0.06 0.07 0.07 0.08 0.08 0.07 0.05 0.04 0.04
0.03 0.03 0.03 0.03 0.04 0.04 0.03 0.02 0.02 0.03 0.04 0.05 0.05 0.04 0.03 0.03 0.02 0.03 0.03 0.04 0.04 0.03 0.04 0.06 0.07 0.07 0.06 0.06 0.05 0.05 0.05 0.06 0.06 0.07 0.09 0.08 0.07 0.06
0.01 0.02 0.02 0.03 0.03 0.03 0.03 0.03 0.03 0.03 0.03 0.03 0.03 0.03 0.02 0.02 0.02 0.02 0.03 0.03 0.04 0.03 0.03 0.05 0.06 0.06 0.06 0.05 0.05 0.04 0.05 0.06 0.05 0.06 0.08 0.11 0.11 0.09
0.01 0.02 0.02 0.02 0.02 0.02 0.02 0.02 0.02 0.02 0.02 0.02 0.02 0.02 0.02 0.02 0.02 0.02 0.02 0.02 0.03 0.03 0.04 0.04 0.05 0.05 0.04 0.03 0.04 0.04 0.04 0.05 0.05 0.06 0.07 0.09 0.10 0.10
0.01 0.02 0.02 0.02 0.03 0.03 0.02 0.01 0.01 0.01 0.01 0.01 0.01 0.01 0.01 0.02 0.02 0.02 0.02 0.02 0.03 0.03 0.03 0.04 0.04 0.04 0.04 0.02 0.02 0.02 0.03 0.03 0.04 0.05 0.07 0.09 0.10 0.11
0.01 0.02 0.02 0.02 0.03 0.03 0.03 0.02 0.01 0.01 0.01 0.01 0.01 0.01 0.02 0.02 0.02 0.02 0.02 0.03 0.03 0.02 0.02 0.02 0.02 0.03 0.04 0.03 0.02 0.01 0.02 0.02 0.03 0.03 0.06 0.08 0.08 0.07
0.01 0.02 0.03 0.03 0.03 0.03 0.04 0.04 0.03 0.03 0.02 0.02 0.02 0.02 0.02 0.02 0.02 0.02 0.02 0.02 0.02 0.02 0.02 0.02 0.02 0.02 0.03 0.03 0.03 0.02 0.01 0.02 0.03 0.03 0.04 0.06 0.06 0.05
0.01 0.02 0.02 0.03 0.02 0.02 0.03 0.03 0.03 0.03 0.04 0.04 0.04 0.03 0.03 0.04 0.03 0.03 0.02 0.02 0.02 0.02 0.02 0.02 0.02 0.01 0.02 0.03 0.04 0.03 0.03 0.02 0.03 0.03 0.03 0.04 0.05 0.06
0.02 0.02 0.01 0.01 0.02 0.02 0.03 0.03 0.03 0.03 0.05 0.06 0.06 0.06 0.06 0.06 0.05 0.04 0.03 0.02 0.02 0.02 0.02 0.02 0.01 0.01 0.02 0.02 0.03 0.04 0.04 0.04 0.03 0.02 0.02 0.02 0.03 0.06
0.02 0.01 0.01 0.01 0.01 0.02 0.02 0.03 0.04 0.04 0.04 0.04 0.04 0.04 0.04 0.04 0.04 0.03 0.03 0.03 0.03 0.03 0.03 0.03 0.02 0.02 0.02 0.01 0.02 0.03 0.05 0.04 0.03 0.04 0.03 0.02 0.02 0.02
MSLP
1005.57 1006.14 1006.72 1007.29 1007.84 1008.36 1008.84 1009.29 1009.69 1010.06 1010.39 1010.69 1010.97 1011.24 1011.51 1011.77 1012.03 1012.29 1012.56 1012.82 1013.06 1013.28 1013.48 1013.63 1013.74 1013.80 1013.81 1013.76 1013.66 1013.49 1013.25 1012.96 1012.60 1012.18 1011.72 1011.23 1010.73 1010.25
1005.47 1005.99 1006.50 1007.00 1007.49 1007.99 1008.49 1008.99 1009.48 1009.96 1010.41 1010.84 1011.23 1011.58 1011.88 1012.15 1012.38 1012.58 1012.76 1012.91 1013.05 1013.16 1013.26 1013.34 1013.40 1013.42 1013.40 1013.35 1013.24 1013.07 1012.84 1012.55 1012.19 1011.77 1011.30 1010.80 1010.29 1009.79
1005.52 1005.98 1006.42 1006.84 1007.28 1007.73 1008.22 1008.74 1009.29 1009.85 1010.41 1010.93 1011.41 1011.82 1012.15 1012.42 1012.60 1012.73 1012.81 1012.86 1012.88 1012.89 1012.90 1012.90 1012.90 1012.90 1012.88 1012.83 1012.74 1012.61 1012.42 1012.16 1011.84 1011.46 1011.03 1010.56 1010.07 1009.58
1005.70 1006.12 1006.50 1006.86 1007.22 1007.63 1008.09 1008.61 1009.19 1009.80 1010.41 1011.00 1011.52 1011.97 1012.32 1012.56 1012.70 1012.76 1012.75 1012.70 1012.62 1012.54 1012.46 1012.41 1012.36 1012.34 1012.31 1012.28 1012.23 1012.14 1012.01 1011.82 1011.56 1011.25 1010.88 1010.46 1010.02 1009.57
1005.97 1006.38 1006.72 1007.03 1007.34 1007.71 1008.13 1008.64 1009.21 1009.82 1010.46 1011.06 1011.60 1012.06 1012.39 1012.61 1012.70 1012.70 1012.63 1012.50 1012.34 1012.19 1012.06 1011.95 1011.87 1011.82 1011.80 1011.78 1011.76 1011.72 1011.64 1011.52 1011.33 1011.09 1010.80 1010.45 1010.07 1009.66
1006.31 1006.73 1007.06 1007.35 1007.64 1007.96 1008.36 1008.82 1009.37 1009.96 1010.57 1011.16 1011.68 1012.10 1012.41 1012.60 1012.66 1012.62 1012.49 1012.32 1012.12 1011.92 1011.75 1011.60 1011.50 1011.44 1011.40 1011.39 1011.38 1011.36 1011.32 1011.24 1011.12 1010.94 1010.72 1010.44 1010.12 1009.77
1006.68 1007.12 1007.48 1007.78 1008.06 1008.37 1008.73 1009.16 1009.66 1010.20 1010.75 1011.28 1011.76 1012.14 1012.40 1012.55 1012.59 1012.52 1012.39 1012.20 1011.99 1011.78 1011.59 1011.43 1011.30 1011.21 1011.16 1011.12 1011.10 1011.07 1011.04 1010.98 1010.88 1010.76 1010.58 1010.36 1010.10 1009.79
1007.04 1007.54 1007.94 1008.27 1008.56 1008.87 1009.21 1009.60 1010.04 1010.51 1010.98 1011.44 1011.84 1012.16 1012.38 1012.50 1012.52 1012.46 1012.34 1012.16 1011.97 1011.77 1011.58 1011.42 1011.28 1011.16 1011.06 1010.98 1010.92 1010.86 1010.79 1010.72 1010.63 1010.51 1010.36 1010.18 1009.95 1009.69
1007.42 1007.96 1008.41 1008.78 1009.11 1009.42 1009.74 1010.09 1010.46 1010.86 1011.25 1011.62 1011.94 1012.19 1012.36 1012.46 1012.48 1012.43 1012.33 1012.20 1012.05 1011.88 1011.72 1011.55 1011.40 1011.25 1011.10 1010.97 1010.84 1010.72 1010.60 1010.49 1010.36 1010.24 1010.09 1009.92 1009.72 1009.48
1007.80 1008.39 1008.88 1009.29 1009.64 1009.97 1010.28 1010.59 1010.90 1011.22 1011.53 1011.81 1012.04 1012.23 1012.36 1012.44 1012.46 1012.44 1012.38 1012.30 1012.20 1012.07 1011.94 1011.79 1011.62 1011.45 1011.26 1011.06 1010.87 1010.68 1010.50 1010.32 1010.16 1009.99 1009.83 1009.66 1009.47 1009.26
1008.24 1008.85 1009.36 1009.80 1010.17 1010.50 1010.79 1011.07 1011.33 1011.58 1011.81 1012.00 1012.17 1012.30 1012.39 1012.45 1012.48 1012.48 1012.47 1012.44 1012.38 1012.31 1012.21 1012.08 1011.91 1011.72 1011.50 1011.25 1011.00 1010.75 1010.50 1010.28 1010.07 1009.87 1009.69 1009.51 1009.32 1009.12
1008.76 1009.35 1009.86 1010.30 1010.68 1011.00 1011.28 1011.53 1011.74 1011.94 1012.10 1012.23 1012.34 1012.42 1012.48 1012.52 1012.56 1012.58 1012.60 1012.61 1012.60 1012.57 1012.50 1012.40 1012.24 1012.04 1011.80 1011.53 1011.24 1010.95 1010.67 1010.41 1010.16 1009.95 1009.75 1009.56 1009.38 1009.19
1009.36 1009.91 1010.40 1010.82 1011.18 1011.48 1011.74 1011.96 1012.15 1012.30 1012.42 1012.50 1012.56 1012.61 1012.64 1012.67 1012.71 1012.74 1012.78 1012.82 1012.85 1012.84 1012.80 1012.72 1012.59 1012.40 1012.16 1011.89 1011.60 1011.30 1011.01 1010.74 1010.48 1010.26 1010.06 1009.88 1009.70 1009.52
1010.03 1010.52 1010.96 1011.34 1011.66 1011.95 1012.18 1012.39 1012.55 1012.68 1012.76 1012.82 1012.86 1012.88 1012.90 1012.92 1012.94 1012.98 1013.03 1013.08 1013.12 1013.14 1013.12 1013.06 1012.95 1012.79 1012.58 1012.34 1012.06 1011.79 1011.51 1011.26 1011.02 1010.81 1010.62 1010.45 1010.28 1010.10
1010.74 1011.14 1011.51 1011.84 1012.13 1012.38 1012.60 1012.79 1012.94 1013.06 1013.14 1013.20 1013.23 1013.24 1013.24 1013.25 1013.27 1013.30 1013.34 1013.38 1013.43 1013.46 1013.46 1013.42 1013.34 1013.22 1013.05 1012.84 1012.61 1012.38 1012.14 1011.92 1011.72 1011.54 1011.37 1011.21 1011.05 1010.88
1011.40 1011.73 1012.03 1012.30 1012.55 1012.77 1012.98 1013.16 1013.32 1013.45 1013.54 1013.60 1013.64 1013.65 1013.65 1013.65 1013.65 1013.67 1013.70 1013.73 1013.77 1013.80 1013.81 1013.80 1013.75 1013.66 1013.54 1013.38 1013.21 1013.02 1012.84 1012.66 1012.49 1012.34 1012.20 1012.06 1011.91 1011.75
1011.98 1012.23 1012.46 1012.68 1012.90 1013.11 1013.31 1013.50 1013.66 1013.81 1013.92 1014.00 1014.05 1014.08 1014.08 1014.08 1014.07 1014.07 1014.08 1014.11 1014.14 1014.16 1014.18 1014.19 1014.17 1014.12 1014.04 1013.93 1013.80 1013.66 1013.52 1013.37 1013.23 1013.11 1012.98 1012.86 1012.72 1012.56
1012.42 1012.61 1012.79 1012.98 1013.17 1013.37 1013.58 1013.78 1013.96 1014.13 1014.27 1014.37 1014.44 1014.48 1014.49 1014.49 1014.48 1014.47 1014.47 1014.48 1014.50 1014.53 1014.56 1014.58 1014.58 1014.56 1014.51 1014.44 1014.34 1014.23 1014.11 1013.98 1013.86 1013.75 1013.63 1013.51 1013.38 1013.22
1012.73 1012.88 1013.04 1013.20 1013.38 1013.58 1013.79 1014.00 1014.21 1014.40 1014.56 1014.69 1014.78 1014.83 1014.85 1014.86 1014.84 1014.83 1014.82 1014.83 1014.85 1014.88 1014.91 1014.94 1014.96 1014.96 1014.93 1014.88 1014.80 1014.70 1014.58 1014.45 1014.32 1014.20 1014.07 1013.94 1013.81 1013.66
1012.94 1013.07 1013.22 1013.38 1013.56 1013.76 1013.98 1014.21 1014.43 1014.63 1014.81 1014.95 1015.06 1015.12 1015.15 1015.15 1015.14 1015.13 1015.12 1015.12 1015.14 1015.18 1015.22 1015.26 1015.29 1015.30 1015.28 1015.23 1015.15 1015.04 1014.90 1014.75 1014.60 1014.45 1014.30 1014.15 1014.01 1013.86
1013.11 1013.24 1013.38 1013.55 1013.74 1013.94 1014.17 1014.40 1014.64 1014.85 1015.03 1015.18 1015.28 1015.35 1015.38 1015.39 1015.38 1015.36 1015.36 1015.36 1015.39 1015.42 1015.47 1015.52 1015.55 1015.56 1015.54 1015.48 1015.38 1015.25 1015.08 1014.90 1014.71 1014.52 1014.34 1014.17 1014.01 1013.85
1013.28 1013.42 1013.58 1013.75 1013.95 1014.16 1014.39 1014.63 1014.85 1015.06 1015.24 1015.38 1015.48 1015.54 1015.57 1015.58 1015.56 1015.55 1015.54 1015.55 1015.58 1015.61 1015.66 1015.70 1015.74 1015.74 1015.71 1015.64 1015.52 1015.36 1015.16 1014.94 1014.70 1014.47 1014.25 1014.05 1013.87 1013.70
1013.49 1013.64 1013.81 1013.99 1014.20 1014.41 1014.64 1014.87 1015.08 1015.28 1015.45 1015.58 1015.67 1015.72 1015.74 1015.73 1015.72 1015.70 1015.68 1015.69 1015.71 1015.74 1015.79 1015.82 1015.85 1015.84 1015.80 1015.71 1015.56 1015.38 1015.15 1014.90 1014.63 1014.36 1014.11 1013.88 1013.67 1013.48
Thickness
5648 5646 5645 5645 5644 5643 5642 5640 5636 5634 5638 5642 5645 5649 5650 5650 5649 5648 5648 5649 5649 5649 5650 5650 5651 5652 5653 5654 5654 5655 5655 5655 5656 5657 5658 5659 5660 5660
5643 5641 5640 5640 5639 5638 5637 5636 5634 5631 5631 5635 5636 5639 5641 5642 5642 5642 5642 5643 5643 5643 5644 5644 5645 5646 5647 5648 5649 5649 5650 5650 5651 5651 5652 5653 5654 5654
5639 5637 5635 5634 5633 5632 5631 5630 5629 5627 5624 5628 5630 5632 5633 5633 5633 5635 5636 5637 5638 5638 5639 5640 5640 5641 5642 5642 5643 5644 5645 5645 5646 5646 5646 5647 5648 5649
5634 5632 5631 5630 5627 5625 5624 5623 5622 5622 5619 5618 5622 5623 5625 5627 5627 5628 5630 5631 5632 5633 5634 5634 5635 5636 5637 5637 5638 5639 5639 5640 5640 5641 5641 5641 5642 5642
5630 5628 5627 5624 5622 5620 5619 5618 5617 5617 5615 5613 5615 5617 5618 5620 5620 5621 5623 5624 5626 5627 5627 5627 5628 5629 5630 5631 5632 5633 5633 5634 5634 5635 5634 5634 5635 5636
5627 5625 5623 5621 5618 5617 5615 5613 5612 5611 5610 5609 5608 5610 5611 5613 5613 5613 5614 5616 5616 5619 5620 5621 5621 5621 5623 5624 5625 5626 5626 5627 5627 5627 5628 5628 5628 5629
5623 5621 5620 5618 5616 5614 5612 5609 5607 5605 5604 5603 5602 5602 5603 5603 5604 5607 5606 5608 5608 5610 5611 5612 5614 5614 5615 5617 5618 5619 5619 5619 5620 5620 5620 5621 5621 5622
5619 5618 5617 5615 5613 5611 5608 5605 5603 5600 5598 5597 5597 5596 5596 5597 5599 5599 5599 5599 5600 5604 5603 5604 5606 5607 5609 5610 5612 5612 5612 5612 5613 5613 5613 5613 5613 5614
5617 5615 5615 5614 5610 5607 5605 5602 5599 5596 5595 5593 5591 5591 5592 5593 5593 5593 5593 5593 5593 5596 5596 5596 5598 5599 5601 5603 5604 5605 5605 5605 5605 5605 5605 5605 5605 5606
5615 5613 5610 5608 5606 5602 5601 5598 5595 5593 5593 5591 5590 5589 5589 5589 5588 5588 5588 5588 5589 5590 5590 5588 5590 5591 5594 5594 5595 5595 5596 5596 5596 5596 5597 5597 5598 5598
5612 5610 5608 5604 5600 5597 5596 5593 5591 5590 5589 5588 5587 5587 5586 5585 5584 5583 5582 5581 5580 5582 5583 5582 5583 5584 5585 5585 5586 5587 5587 5587 5587 5587 5588 5589 5589 5590
5609 5607 5604 5600 5597 5593 5591 5589 5587 5586 5586 5586 5585 5584 5583 5583 5582 5580 5579 5577 5575 5575 5577 5576 5576 5576 5575 5577 5578 5577 5577 5578 5578 5578 5579 5580 5580 5580
5605 5603 5600 5597 5594 5591 5588 5586 5584 5582 5582 5582 5582 5582 5581 5580 5579 5577 5576 5574 5571 5570 5572 5571 5570 5569 5567 5568 5569 5570 5570 5570 5570 5570 5571 5571 5571 5572
5601 5599 5597 5594 5591 5588 5586 5584 5582 5580 5580 5579 5579 5578 5577 5576 5575 5575 5574 5572 5571 5569 5569 5568 5565 5563 5562 5561 5561 5563 5563 5563 5563 5563 5564 5563 5563 5563
5598 5596 5593 5590 5588 5586 5585 5582 5580 5579 5577 5576 5575 5574 5574 5573 5572 5571 5570 5569 5567 5566 5566 5564 5562 5559 5557 5555 5555 5555 5555 5556 5556 5556 5556 5556 5555 5555
5594 5593 5590 5589 5587 5585 5583 5582 5580 5578 5576 5573 5572 5571 5570 5569 5567 5566 5564 5563 5561 5560 5560 5559 5557 5554 5551 5550 5549 5549 5549 5548 5549 5549 5549 5550 5550 5550
5590 5590 5589 5589 5588 5585 5583 5582 5580 5577 5574 5571 5568 5566 5565 5563 5562 5561 5559 5558 5555 5553 5552 5552 5551 5548 5546 5544 5543 5543 5542 5542 5542 5542 5542 5542 5543 5544
5587 5588 5588 5587 5586 5584 5582 5580 5578 5575 5572 5568 5565 5563 5560 5559 5557 5556 5554 5551 5549 5547 5546 5545 5544 5542 5540 5539 5537 5536 5535 5535 5536 5536 5536 5536 5536 5537
5586 5587 5586 5585 5583 5582 5580 5577 5575 5572 5569 5565 5562 5559 5557 5555 5552 5550 5547 5545 5543 5542 5540 5539 5537 5535 5532 5531 5531 5529 5528 5528 5529 5529 5529 5530 5529 5529
5587 5586 5584 5583 5581 5579 5576 5574 5571 5569 5565 5562 5558 5555 5553 5550 5547 5545 5543 5540 5538 5537 5535 5533 5531 5529 5526 5524 5523 5523 5523 5522 5522 5522 5522 5522 5521 5521
5587 5585 5583 5581 5578 5576 5574 5571 5568 5565 5562 5558 5555 5552 5549 5546 5544 5541 5539 5536 5534 5532 5530 5528 5527 5526 5523 5521 5518 5517 5517 5517 5517 5515 5516 5516 5515 5515
5585 5583 5581 5579 5577 5574 5572 5568 5565 5562 5558 5555 5552 5549 5545 5542 5540 5537 5535 5532 5530 5528 5526 5524 5523 5521 5518 5515 5513 5511 5510 5510 5509 5509 5509 5509 5508 5508
5583 5581 5579 5577 5574 5572 5569 5565 5562 5558 5555 5551 5548 5545 5542 5538 5535 5532 5530 5528 5525 5523 5521 5519 5517 5514 5512 5510 5508 5506 5505 5505 5504 5504 5502 5502 5502 5502